MeasurementDateGMT,Mole Valley - Dorking: Nitrogen Dioxide (ug/m3),Mole Valley - Dorking: PM10 Particulate (ug/m3)
2013-01-01 00:00,6,19
2013-01-01 01:00,4,15
2013-01-01 02:00,2,8
2013-01-01 03:00,3,6
2013-01-01 04:00,2,7
2013-01-01 05:00,3,6
2013-01-01 06:00,6,9
2013-01-01 07:00,10,9
2013-01-01 08:00,11,9
2013-01-01 09:00,9,13
2013-01-01 10:00,7,14
2013-01-01 11:00,6,15
2013-01-01 12:00,7,10
2013-01-01 13:00,8,12
2013-01-01 14:00,7,8
2013-01-01 15:00,11,11
2013-01-01 16:00,13,11
2013-01-01 17:00,23,18
2013-01-01 18:00,16,16
2013-01-01 19:00,12,11
2013-01-01 20:00,10,12
2013-01-01 21:00,9,13
2013-01-01 22:00,9,14
2013-01-01 23:00,9,16
2013-01-02 00:00,8,14
2013-01-02 01:00,9,16
2013-01-02 02:00,8,13
2013-01-02 03:00,10,14
2013-01-02 04:00,9,12
2013-01-02 05:00,12,11
2013-01-02 06:00,32,11
2013-01-02 07:00,27,12
2013-01-02 08:00,28,14
2013-01-02 09:00,28,16
2013-01-02 10:00,21,20
2013-01-02 11:00,29,23
2013-01-02 12:00,43,24
2013-01-02 13:00,34,17
2013-01-02 14:00,34,13
2013-01-02 15:00,35,16
2013-01-02 16:00,29,17
2013-01-02 17:00,21,9
2013-01-02 18:00,11,8
2013-01-02 19:00,10,7
2013-01-02 20:00,9,8
2013-01-02 21:00,12,8
2013-01-02 22:00,9,9
2013-01-02 23:00,11,9
2013-01-03 00:00,6,12
2013-01-03 01:00,6,14
2013-01-03 02:00,5,13
2013-01-03 03:00,3,11
2013-01-03 04:00,3,12
2013-01-03 05:00,3,10
2013-01-03 06:00,12,12
2013-01-03 07:00,10,13
2013-01-03 08:00,12,16
2013-01-03 09:00,10,15
2013-01-03 10:00,14,19
2013-01-03 11:00,10,17
2013-01-03 12:00,9,20
2013-01-03 13:00,12,25
2013-01-03 14:00,11,20
2013-01-03 15:00,13,19
2013-01-03 16:00,19,21
2013-01-03 17:00,17,21
2013-01-03 18:00,14,21
2013-01-03 19:00,12,21
2013-01-03 20:00,12,17
2013-01-03 21:00,7,10
2013-01-03 22:00,7,10
2013-01-03 23:00,5,7
2013-01-04 00:00,4,8
2013-01-04 01:00,1,7
2013-01-04 02:00,2,10
2013-01-04 03:00,2,12
2013-01-04 04:00,3,15
2013-01-04 05:00,4,15
2013-01-04 06:00,11,14
2013-01-04 07:00,15,15
2013-01-04 08:00,16,16
2013-01-04 09:00,13,15
2013-01-04 10:00,9,15
2013-01-04 11:00,10,17
2013-01-04 12:00,11,14
2013-01-04 13:00,13,15
2013-01-04 14:00,14,12
2013-01-04 15:00,15,14
2013-01-04 16:00,16,12
2013-01-04 17:00,16,11
2013-01-04 18:00,15,11
2013-01-04 19:00,15,15
2013-01-04 20:00,15,15
2013-01-04 21:00,11,15
2013-01-04 22:00,8,14
2013-01-04 23:00,7,16
2013-01-05 00:00,5,14
2013-01-05 01:00,4,14
2013-01-05 02:00,2,13
2013-01-05 03:00,2,14
2013-01-05 04:00,3,13
2013-01-05 05:00,6,8
2013-01-05 06:00,19,9
2013-01-05 07:00,30,9
2013-01-05 08:00,49,11
2013-01-05 09:00,40,11
2013-01-05 10:00,35,13
2013-01-05 11:00,12,8
2013-01-05 12:00,11,9
2013-01-05 13:00,8,10
2013-01-05 14:00,8,11
2013-01-05 15:00,12,11
2013-01-05 16:00,14,10
2013-01-05 17:00,10,9
2013-01-05 18:00,10,10
2013-01-05 19:00,11,8
2013-01-05 20:00,16,12
2013-01-05 21:00,37,17
2013-01-05 22:00,40,22
2013-01-05 23:00,29,18
2013-01-06 00:00,27,18
2013-01-06 01:00,25,24
2013-01-06 02:00,17,19
2013-01-06 03:00,14,20
2013-01-06 04:00,6,14
2013-01-06 05:00,6,16
2013-01-06 06:00,5,14
2013-01-06 07:00,14,12
2013-01-06 08:00,16,13
2013-01-06 09:00,14,12
2013-01-06 10:00,8,16
2013-01-06 11:00,9,13
2013-01-06 12:00,8,13
2013-01-06 13:00,16,18
2013-01-06 14:00,19,15
2013-01-06 15:00,20,20
2013-01-06 16:00,26,26
2013-01-06 17:00,32,27
2013-01-06 18:00,33,27
2013-01-06 19:00,24,25
2013-01-06 20:00,14,16
2013-01-06 21:00,8,14
2013-01-06 22:00,7,15
2013-01-06 23:00,4,12
2013-01-07 00:00,4,11
2013-01-07 01:00,3,9
2013-01-07 02:00,2,11
2013-01-07 03:00,3,10
2013-01-07 04:00,5,10
2013-01-07 05:00,9,11
2013-01-07 06:00,21,11
2013-01-07 07:00,36,12
2013-01-07 08:00,38,14
2013-01-07 09:00,32,14
2013-01-07 10:00,24,13
2013-01-07 11:00,27,14
2013-01-07 12:00,24,12
2013-01-07 13:00,22,13
2013-01-07 14:00,20,11
2013-01-07 15:00,26,14
2013-01-07 16:00,33,17
2013-01-07 17:00,31,19
2013-01-07 18:00,35,20
2013-01-07 19:00,31,22
2013-01-07 20:00,32,22
2013-01-07 21:00,27,24
2013-01-07 22:00,22,20
2013-01-07 23:00,11,16
2013-01-08 00:00,6,16
2013-01-08 01:00,4,16
2013-01-08 02:00,4,15
2013-01-08 03:00,5,16
2013-01-08 04:00,8,15
2013-01-08 05:00,22,14
2013-01-08 06:00,30,18
2013-01-08 07:00,29,17
2013-01-08 08:00,39,21
2013-01-08 09:00,29,21
2013-01-08 10:00,22,18
2013-01-08 11:00,24,23
2013-01-08 12:00,21,23
2013-01-08 13:00,21,21
2013-01-08 14:00,25,22
2013-01-08 15:00,29,21
2013-01-08 16:00,30,25
2013-01-08 17:00,29,27
2013-01-08 18:00,27,29
2013-01-08 19:00,22,24
2013-01-08 20:00,19,16
2013-01-08 21:00,17,13
2013-01-08 22:00,12,9
2013-01-08 23:00,10,9
2013-01-09 00:00,9,9
2013-01-09 01:00,8,10
2013-01-09 02:00,9,8
2013-01-09 03:00,10,8
2013-01-09 04:00,15,7
2013-01-09 05:00,18,9
2013-01-09 06:00,23,10
2013-01-09 07:00,38,13
2013-01-09 08:00,42,16
2013-01-09 09:00,45,18
2013-01-09 10:00,41,20
2013-01-09 11:00,40,21
2013-01-09 12:00,43,27
2013-01-09 13:00,43,24
2013-01-09 14:00,47,26
2013-01-09 15:00,50,21
2013-01-09 16:00,66,25
2013-01-09 17:00,94,50
2013-01-09 18:00,69,47
2013-01-09 19:00,47,46
2013-01-09 20:00,42,36
2013-01-09 21:00,44,37
2013-01-09 22:00,41,38
2013-01-09 23:00,37,30
2013-01-10 00:00,31,30
2013-01-10 01:00,28,26
2013-01-10 02:00,31,25
2013-01-10 03:00,42,25
2013-01-10 04:00,32,22
2013-01-10 05:00,46,24
2013-01-10 06:00,58,26
2013-01-10 07:00,61,27
2013-01-10 08:00,62,31
2013-01-10 09:00,58,29
2013-01-10 10:00,50,27
2013-01-10 11:00,46,27
2013-01-10 12:00,49,23
2013-01-10 13:00,50,30
2013-01-10 14:00,52,25
2013-01-10 15:00,58,31
2013-01-10 16:00,61,29
2013-01-10 17:00,62,37
2013-01-10 18:00,60,32
2013-01-10 19:00,62,32
2013-01-10 20:00,60,29
2013-01-10 21:00,55,24
2013-01-10 22:00,42,20
2013-01-10 23:00,22,23
2013-01-11 00:00,19,19
2013-01-11 01:00,19,21
2013-01-11 02:00,23,22
2013-01-11 03:00,22,23
2013-01-11 04:00,24,18
2013-01-11 05:00,30,27
2013-01-11 06:00,39,18
2013-01-11 07:00,35,14
2013-01-11 08:00,38,23
2013-01-11 09:00,40,27
2013-01-11 10:00,39,27
2013-01-11 11:00,31,28
2013-01-11 12:00,24,30
2013-01-11 13:00,21,16
2013-01-11 14:00,26,21
2013-01-11 15:00,50,30
2013-01-11 16:00,60,29
2013-01-11 17:00,71,41
2013-01-11 18:00,69,33
2013-01-11 19:00,69,36
2013-01-11 20:00,65,32
2013-01-11 21:00,63,21
2013-01-11 22:00,61,23
2013-01-11 23:00,56,31
2013-01-12 00:00,47,30
2013-01-12 01:00,40,31
2013-01-12 02:00,36,28
2013-01-12 03:00,34,27
2013-01-12 04:00,25,22
2013-01-12 05:00,16,20
2013-01-12 06:00,15,16
2013-01-12 07:00,18,16
2013-01-12 08:00,21,15
2013-01-12 09:00,24,14
2013-01-12 10:00,26,13
2013-01-12 11:00,28,17
2013-01-12 12:00,28,15
2013-01-12 13:00,22,16
2013-01-12 14:00,32,18
2013-01-12 15:00,37,15
2013-01-12 16:00,42,17
2013-01-12 17:00,32,14
2013-01-12 18:00,29,16
2013-01-12 19:00,31,15
2013-01-12 20:00,28,16
2013-01-12 21:00,26,17
2013-01-12 22:00,26,17
2013-01-12 23:00,22,15
2013-01-13 00:00,21,16
2013-01-13 01:00,19,18
2013-01-13 02:00,26,22
2013-01-13 03:00,21,23
2013-01-13 04:00,21,22
2013-01-13 05:00,24,22
2013-01-13 06:00,26,23
2013-01-13 07:00,23,20
2013-01-13 08:00,23,24
2013-01-13 09:00,30,28
2013-01-13 10:00,41,26
2013-01-13 11:00,43,27
2013-01-13 12:00,34,26
2013-01-13 13:00,28,17
2013-01-13 14:00,31,22
2013-01-13 15:00,32,18
2013-01-13 16:00,43,24
2013-01-13 17:00,44,25
2013-01-13 18:00,45,23
2013-01-13 19:00,51,29
2013-01-13 20:00,59,30
2013-01-13 21:00,60,34
2013-01-13 22:00,58,38
2013-01-13 23:00,57,29
2013-01-14 00:00,55,31
2013-01-14 01:00,52,28
2013-01-14 02:00,48,26
2013-01-14 03:00,39,27
2013-01-14 04:00,27,25
2013-01-14 05:00,12,13
2013-01-14 06:00,29,15
2013-01-14 07:00,38,19
2013-01-14 08:00,37,20
2013-01-14 09:00,38,20
2013-01-14 10:00,34,20
2013-01-14 11:00,33,23
2013-01-14 12:00,36,20
2013-01-14 13:00,39,22
2013-01-14 14:00,43,17
2013-01-14 15:00,37,19
2013-01-14 16:00,40,14
2013-01-14 17:00,33,16
2013-01-14 18:00,29,14
2013-01-14 19:00,15,9
2013-01-14 20:00,15,8
2013-01-14 21:00,6,8
2013-01-14 22:00,5,6
2013-01-14 23:00,6,8
2013-01-15 00:00,6,11
2013-01-15 01:00,6,8
2013-01-15 02:00,8,8
2013-01-15 03:00,17,9
2013-01-15 04:00,21,7
2013-01-15 05:00,22,8
2013-01-15 06:00,27,8
2013-01-15 07:00,38,10
2013-01-15 08:00,45,12
2013-01-15 09:00,44,14
2013-01-15 10:00,36,15
2013-01-15 11:00,34,19
2013-01-15 12:00,37,17
2013-01-15 13:00,36,18
2013-01-15 14:00,33,17
2013-01-15 15:00,41,18
2013-01-15 16:00,54,25
2013-01-15 17:00,60,29
2013-01-15 18:00,63,27
2013-01-15 19:00,76,34
2013-01-15 20:00,67,33
2013-01-15 21:00,65,36
2013-01-15 22:00,69,38
2013-01-15 23:00,55,33
2013-01-16 00:00,45,23
2013-01-16 01:00,39,25
2013-01-16 02:00,38,23
2013-01-16 03:00,35,26
2013-01-16 04:00,44,26
2013-01-16 05:00,52,23
2013-01-16 06:00,48,19
2013-01-16 07:00,48,12
2013-01-16 08:00,50,16
2013-01-16 09:00,42,20
2013-01-16 10:00,42,26
2013-01-16 11:00,36,22
2013-01-16 12:00,40,20
2013-01-16 13:00,54,31
2013-01-16 14:00,61,31
2013-01-16 15:00,72,36
2013-01-16 16:00,80,39
2013-01-16 17:00,85,43
2013-01-16 18:00,88,42
2013-01-16 19:00,78,47
2013-01-16 20:00,81,53
2013-01-16 21:00,79,52
2013-01-16 22:00,75,42
2013-01-16 23:00,81,46
2013-01-17 00:00,79,45
2013-01-17 01:00,78,41
2013-01-17 02:00,77,40
2013-01-17 03:00,65,43
2013-01-17 04:00,56,51
2013-01-17 05:00,60,34
2013-01-17 06:00,68,34
2013-01-17 07:00,78,32
2013-01-17 08:00,90,41
2013-01-17 09:00,89,44
2013-01-17 10:00,71,38
2013-01-17 11:00,65,41
2013-01-17 12:00,66,40
2013-01-17 13:00,69,44
2013-01-17 14:00,73,46
2013-01-17 15:00,75,46
2013-01-17 16:00,66,43
2013-01-17 17:00,65,33
2013-01-17 18:00,62,38
2013-01-17 19:00,63,41
2013-01-17 20:00,56,36
2013-01-17 21:00,49,34
2013-01-17 22:00,40,32
2013-01-17 23:00,28,27
2013-01-18 00:00,20,22
2013-01-18 01:00,10,19
2013-01-18 02:00,8,19
2013-01-18 03:00,8,23
2013-01-18 04:00,18,29
2013-01-18 05:00,33,30
2013-01-18 06:00,25,30
2013-01-18 07:00,24,26
2013-01-18 08:00,29,30
2013-01-18 09:00,28,32
2013-01-18 10:00,24,30
2013-01-18 11:00,36,27
2013-01-18 12:00,35,33
2013-01-18 13:00,36,32
2013-01-18 14:00,26,29
2013-01-18 15:00,24,30
2013-01-18 16:00,26,30
2013-01-18 17:00,28,34
2013-01-18 18:00,27,32
2013-01-18 19:00,24,34
2013-01-18 20:00,25,29
2013-01-18 21:00,29,29
2013-01-18 22:00,33,31
2013-01-18 23:00,36,32
2013-01-19 00:00,35,32
2013-01-19 01:00,25,31
2013-01-19 02:00,20,26
2013-01-19 03:00,19,25
2013-01-19 04:00,22,23
2013-01-19 05:00,25,26
2013-01-19 06:00,23,30
2013-01-19 07:00,25,25
2013-01-19 08:00,29,28
2013-01-19 09:00,31,30
2013-01-19 10:00,35,30
2013-01-19 11:00,31,31
2013-01-19 12:00,34,31
2013-01-19 13:00,27,27
2013-01-19 14:00,23,26
2013-01-19 15:00,26,23
2013-01-19 16:00,35,28
2013-01-19 17:00,26,23
2013-01-19 18:00,25,28
2013-01-19 19:00,27,26
2013-01-19 20:00,21,26
2013-01-19 21:00,22,27
2013-01-19 22:00,19,26
2013-01-19 23:00,17,28
2013-01-20 00:00,16,28
2013-01-20 01:00,14,26
2013-01-20 02:00,12,28
2013-01-20 03:00,11,26
2013-01-20 04:00,9,27
2013-01-20 05:00,10,24
2013-01-20 06:00,9,23
2013-01-20 07:00,10,24
2013-01-20 08:00,16,26
2013-01-20 09:00,24,26
2013-01-20 10:00,28,23
2013-01-20 11:00,31,23
2013-01-20 12:00,33,21
2013-01-20 13:00,34,17
2013-01-20 14:00,39,19
2013-01-20 15:00,38,18
2013-01-20 16:00,41,21
2013-01-20 17:00,45,24
2013-01-20 18:00,47,26
2013-01-20 19:00,44,26
2013-01-20 20:00,44,25
2013-01-20 21:00,42,23
2013-01-20 22:00,38,21
2013-01-20 23:00,32,21
2013-01-21 00:00,29,23
2013-01-21 01:00,23,23
2013-01-21 02:00,17,21
2013-01-21 03:00,14,21
2013-01-21 04:00,15,21
2013-01-21 05:00,18,18
2013-01-21 06:00,27,16
2013-01-21 07:00,48,17
2013-01-21 08:00,48,18
2013-01-21 09:00,43,23
2013-01-21 10:00,39,22
2013-01-21 11:00,36,23
2013-01-21 12:00,14,18
2013-01-21 13:00,11,16
2013-01-21 14:00,45,22
2013-01-21 15:00,47,25
2013-01-21 16:00,66,32
2013-01-21 17:00,73,34
2013-01-21 18:00,65,44
2013-01-21 19:00,68,51
2013-01-21 20:00,62,51
2013-01-21 21:00,55,52
2013-01-21 22:00,49,42
2013-01-21 23:00,46,35
2013-01-22 00:00,46,37
2013-01-22 01:00,45,34
2013-01-22 02:00,44,29
2013-01-22 03:00,48,30
2013-01-22 04:00,48,28
2013-01-22 05:00,50,31
2013-01-22 06:00,52,33
2013-01-22 07:00,68,32
2013-01-22 08:00,80,40
2013-01-22 09:00,94,43
2013-01-22 10:00,46,27
2013-01-22 11:00,36,26
2013-01-22 12:00,28,25
2013-01-22 13:00,26,30
2013-01-22 14:00,26,25
2013-01-22 15:00,28,22
2013-01-22 16:00,34,15
2013-01-22 17:00,29,19
2013-01-22 18:00,34,17
2013-01-22 19:00,31,22
2013-01-22 20:00,25,28
2013-01-22 21:00,34,26
2013-01-22 22:00,39,29
2013-01-22 23:00,60,33
2013-01-23 00:00,65,33
2013-01-23 01:00,44,27
2013-01-23 02:00,38,27
2013-01-23 03:00,50,30
2013-01-23 04:00,57,47
2013-01-23 05:00,61,47
2013-01-23 06:00,65,41
2013-01-23 07:00,69,40
2013-01-23 08:00,65,36
2013-01-23 09:00,64,35
2013-01-23 10:00,56,37
2013-01-23 11:00,59,39
2013-01-23 12:00,60,40
2013-01-23 13:00,57,47
2013-01-23 14:00,58,47
2013-01-23 15:00,61,38
2013-01-23 16:00,63,34
2013-01-23 17:00,56,53
2013-01-23 18:00,55,52
2013-01-23 19:00,63,41
2013-01-23 20:00,60,39
2013-01-23 21:00,53,45
2013-01-23 22:00,50,34
2013-01-23 23:00,55,42
2013-01-24 00:00,44,30
2013-01-24 01:00,35,27
2013-01-24 02:00,35,28
2013-01-24 03:00,31,24
2013-01-24 04:00,35,25
2013-01-24 05:00,42,23
2013-01-24 06:00,43,26
2013-01-24 07:00,59,27
2013-01-24 08:00,71,33
2013-01-24 09:00,60,33
2013-01-24 10:00,59,32
2013-01-24 11:00,,
2013-01-24 12:00,,
2013-01-24 13:00,27,
2013-01-24 14:00,37,
2013-01-24 15:00,54,21
2013-01-24 16:00,53,23
2013-01-24 17:00,62,26
2013-01-24 18:00,74,35
2013-01-24 19:00,69,34
2013-01-24 20:00,50,25
2013-01-24 21:00,55,33
2013-01-24 22:00,46,32
2013-01-24 23:00,49,32
2013-01-25 00:00,48,32
2013-01-25 01:00,43,30
2013-01-25 02:00,42,31
2013-01-25 03:00,44,31
2013-01-25 04:00,49,28
2013-01-25 05:00,52,29
2013-01-25 06:00,53,28
2013-01-25 07:00,54,29
2013-01-25 08:00,59,32
2013-01-25 09:00,50,31
2013-01-25 10:00,35,25
2013-01-25 11:00,29,28
2013-01-25 12:00,22,36
2013-01-25 13:00,19,31
2013-01-25 14:00,15,30
2013-01-25 15:00,19,26
2013-01-25 16:00,23,25
2013-01-25 17:00,25,28
2013-01-25 18:00,30,31
2013-01-25 19:00,27,35
2013-01-25 20:00,17,35
2013-01-25 21:00,12,34
2013-01-25 22:00,12,34
2013-01-25 23:00,12,27
2013-01-26 00:00,9,20
2013-01-26 01:00,7,14
2013-01-26 02:00,5,13
2013-01-26 03:00,5,12
2013-01-26 04:00,5,10
2013-01-26 05:00,21,8
2013-01-26 06:00,16,9
2013-01-26 07:00,5,7
2013-01-26 08:00,7,9
2013-01-26 09:00,9,13
2013-01-26 10:00,15,14
2013-01-26 11:00,18,20
2013-01-26 12:00,14,23
2013-01-26 13:00,14,26
2013-01-26 14:00,23,26
2013-01-26 15:00,26,27
2013-01-26 16:00,27,29
2013-01-26 17:00,33,33
2013-01-26 18:00,22,31
2013-01-26 19:00,9,29
2013-01-26 20:00,5,29
2013-01-26 21:00,2,27
2013-01-26 22:00,3,23
2013-01-26 23:00,2,26
2013-01-27 00:00,1,24
2013-01-27 01:00,0,18
2013-01-27 02:00,1,14
2013-01-27 03:00,-1,12
2013-01-27 04:00,-1,9
2013-01-27 05:00,-1,8
2013-01-27 06:00,0,7
2013-01-27 07:00,2,10
2013-01-27 08:00,3,16
2013-01-27 09:00,1,11
2013-01-27 10:00,-1,23
2013-01-27 11:00,0,21
2013-01-27 12:00,0,21
2013-01-27 13:00,2,19
2013-01-27 14:00,4,20
2013-01-27 15:00,8,23
2013-01-27 16:00,8,21
2013-01-27 17:00,22,13
2013-01-27 18:00,37,26
2013-01-27 19:00,15,22
2013-01-27 20:00,8,17
2013-01-27 21:00,4,16
2013-01-27 22:00,4,15
2013-01-27 23:00,4,15
2013-01-28 00:00,4,14
2013-01-28 01:00,15,15
2013-01-28 02:00,4,16
2013-01-28 03:00,2,12
2013-01-28 04:00,1,5
2013-01-28 05:00,11,7
2013-01-28 06:00,44,10
2013-01-28 07:00,79,16
2013-01-28 08:00,94,23
2013-01-28 09:00,46,20
2013-01-28 10:00,25,21
2013-01-28 11:00,19,23
2013-01-28 12:00,14,23
2013-01-28 13:00,9,26
2013-01-28 14:00,7,27
2013-01-28 15:00,7,28
2013-01-28 16:00,7,21
2013-01-28 17:00,6,11
2013-01-28 18:00,7,8
2013-01-28 19:00,6,6
2013-01-28 20:00,3,14
2013-01-28 21:00,3,25
2013-01-28 22:00,3,15
2013-01-28 23:00,4,10
2013-01-29 00:00,1,18
2013-01-29 01:00,1,28
2013-01-29 02:00,2,24
2013-01-29 03:00,3,20
2013-01-29 04:00,1,11
2013-01-29 05:00,4,6
2013-01-29 06:00,7,5
2013-01-29 07:00,9,5
2013-01-29 08:00,15,8
2013-01-29 09:00,14,11
2013-01-29 10:00,15,11
2013-01-29 11:00,13,14
2013-01-29 12:00,15,11
2013-01-29 13:00,11,12
2013-01-29 14:00,10,13
2013-01-29 15:00,8,11
2013-01-29 16:00,9,12
2013-01-29 17:00,8,13
2013-01-29 18:00,8,13
2013-01-29 19:00,7,14
2013-01-29 20:00,3,17
2013-01-29 21:00,2,11
2013-01-29 22:00,2,8
2013-01-29 23:00,2,8
2013-01-30 00:00,1,9
2013-01-30 01:00,0,6
2013-01-30 02:00,-1,5
2013-01-30 03:00,-1,5
2013-01-30 04:00,0,4
2013-01-30 05:00,3,3
2013-01-30 06:00,8,4
2013-01-30 07:00,12,4
2013-01-30 08:00,12,5
2013-01-30 09:00,14,8
2013-01-30 10:00,5,8
2013-01-30 11:00,2,10
2013-01-30 12:00,2,16
2013-01-30 13:00,2,17
2013-01-30 14:00,2,18
2013-01-30 15:00,2,20
2013-01-30 16:00,5,20
2013-01-30 17:00,5,21
2013-01-30 18:00,4,22
2013-01-30 19:00,3,25
2013-01-30 20:00,2,24
2013-01-30 21:00,3,24
2013-01-30 22:00,3,25
2013-01-30 23:00,2,23
2013-01-31 00:00,1,22
2013-01-31 01:00,2,24
2013-01-31 02:00,4,27
2013-01-31 03:00,2,27
2013-01-31 04:00,3,27
2013-01-31 05:00,3,27
2013-01-31 06:00,5,20
2013-01-31 07:00,15,12
2013-01-31 08:00,18,14
2013-01-31 09:00,10,15
2013-01-31 10:00,4,28
2013-01-31 11:00,4,26
2013-01-31 12:00,2,22
2013-01-31 13:00,4,18
2013-01-31 14:00,4,26
2013-01-31 15:00,5,28
2013-01-31 16:00,7,27
2013-01-31 17:00,11,25
2013-01-31 18:00,11,28
2013-01-31 19:00,11,27
2013-01-31 20:00,9,26
2013-01-31 21:00,9,28
2013-01-31 22:00,7,28
2013-01-31 23:00,4,27
2013-02-01 00:00,4,27
2013-02-01 01:00,2,28
2013-02-01 02:00,2,30
2013-02-01 03:00,1,25
2013-02-01 04:00,1,16
2013-02-01 05:00,7,9
2013-02-01 06:00,33,9
2013-02-01 07:00,53,12
2013-02-01 08:00,32,8
2013-02-01 09:00,16,5
2013-02-01 10:00,19,7
2013-02-01 11:00,22,9
2013-02-01 12:00,16,8
2013-02-01 13:00,7,7
2013-02-01 14:00,8,9
2013-02-01 15:00,11,10
2013-02-01 16:00,18,11
2013-02-01 17:00,32,13
2013-02-01 18:00,49,22
2013-02-01 19:00,71,37
2013-02-01 20:00,54,36
2013-02-01 21:00,45,35
2013-02-01 22:00,42,33
2013-02-01 23:00,34,17
2013-02-02 00:00,31,15
2013-02-02 01:00,13,13
2013-02-02 02:00,6,6
2013-02-02 03:00,4,8
2013-02-02 04:00,4,8
2013-02-02 05:00,5,9
2013-02-02 06:00,7,6
2013-02-02 07:00,11,7
2013-02-02 08:00,17,7
2013-02-02 09:00,14,7
2013-02-02 10:00,13,9
2013-02-02 11:00,12,10
2013-02-02 12:00,10,11
2013-02-02 13:00,12,9
2013-02-02 14:00,12,9
2013-02-02 15:00,12,8
2013-02-02 16:00,12,9
2013-02-02 17:00,14,9
2013-02-02 18:00,16,11
2013-02-02 19:00,25,15
2013-02-02 20:00,41,25
2013-02-02 21:00,25,15
2013-02-02 22:00,58,30
2013-02-02 23:00,32,18
2013-02-03 00:00,34,18
2013-02-03 01:00,30,17
2013-02-03 02:00,19,16
2013-02-03 03:00,15,17
2013-02-03 04:00,8,12
2013-02-03 05:00,9,14
2013-02-03 06:00,11,13
2013-02-03 07:00,31,12
2013-02-03 08:00,15,10
2013-02-03 09:00,8,12
2013-02-03 10:00,13,9
2013-02-03 11:00,9,9
2013-02-03 12:00,8,8
2013-02-03 13:00,4,10
2013-02-03 14:00,5,10
2013-02-03 15:00,5,10
2013-02-03 16:00,10,13
2013-02-03 17:00,23,19
2013-02-03 18:00,13,22
2013-02-03 19:00,10,19
2013-02-03 20:00,8,15
2013-02-03 21:00,6,15
2013-02-03 22:00,1,13
2013-02-03 23:00,1,11
2013-02-04 00:00,2,10
2013-02-04 01:00,3,11
2013-02-04 02:00,2,15
2013-02-04 03:00,1,13
2013-02-04 04:00,0,9
2013-02-04 05:00,1,8
2013-02-04 06:00,5,9
2013-02-04 07:00,8,9
2013-02-04 08:00,9,10
2013-02-04 09:00,9,16
2013-02-04 10:00,5,21
2013-02-04 11:00,4,29
2013-02-04 12:00,4,23
2013-02-04 13:00,4,21
2013-02-04 14:00,4,20
2013-02-04 15:00,6,20
2013-02-04 16:00,8,25
2013-02-04 17:00,11,24
2013-02-04 18:00,8,27
2013-02-04 19:00,6,29
2013-02-04 20:00,6,25
2013-02-04 21:00,6,26
2013-02-04 22:00,5,23
2013-02-04 23:00,3,20
2013-02-05 00:00,2,19
2013-02-05 01:00,0,9
2013-02-05 02:00,-1,6
2013-02-05 03:00,-1,7
2013-02-05 04:00,0,8
2013-02-05 05:00,2,9
2013-02-05 06:00,6,10
2013-02-05 07:00,7,11
2013-02-05 08:00,16,15
2013-02-05 09:00,9,13
2013-02-05 10:00,6,11
2013-02-05 11:00,9,12
2013-02-05 12:00,4,10
2013-02-05 13:00,6,12
2013-02-05 14:00,6,10
2013-02-05 15:00,6,12
2013-02-05 16:00,8,13
2013-02-05 17:00,10,13
2013-02-05 18:00,11,17
2013-02-05 19:00,5,13
2013-02-05 20:00,4,13
2013-02-05 21:00,4,10
2013-02-05 22:00,2,6
2013-02-05 23:00,1,6
2013-02-06 00:00,1,6
2013-02-06 01:00,2,4
2013-02-06 02:00,2,5
2013-02-06 03:00,1,5
2013-02-06 04:00,7,4
2013-02-06 05:00,9,3
2013-02-06 06:00,14,3
2013-02-06 07:00,17,5
2013-02-06 08:00,21,7
2013-02-06 09:00,20,7
2013-02-06 10:00,21,7
2013-02-06 11:00,19,10
2013-02-06 12:00,14,11
2013-02-06 13:00,14,13
2013-02-06 14:00,15,12
2013-02-06 15:00,15,12
2013-02-06 16:00,15,10
2013-02-06 17:00,16,11
2013-02-06 18:00,20,12
2013-02-06 19:00,12,12
2013-02-06 20:00,16,14
2013-02-06 21:00,15,11
2013-02-06 22:00,11,9
2013-02-06 23:00,9,10
2013-02-07 00:00,9,10
2013-02-07 01:00,9,9
2013-02-07 02:00,7,10
2013-02-07 03:00,8,9
2013-02-07 04:00,9,9
2013-02-07 05:00,12,7
2013-02-07 06:00,12,8
2013-02-07 07:00,14,11
2013-02-07 08:00,18,10
2013-02-07 09:00,19,19
2013-02-07 10:00,19,15
2013-02-07 11:00,14,15
2013-02-07 12:00,12,13
2013-02-07 13:00,13,15
2013-02-07 14:00,11,13
2013-02-07 15:00,14,14
2013-02-07 16:00,16,14
2013-02-07 17:00,24,19
2013-02-07 18:00,25,20
2013-02-07 19:00,32,22
2013-02-07 20:00,24,17
2013-02-07 21:00,19,13
2013-02-07 22:00,28,11
2013-02-07 23:00,29,14
2013-02-08 00:00,42,18
2013-02-08 01:00,43,22
2013-02-08 02:00,41,21
2013-02-08 03:00,40,21
2013-02-08 04:00,36,21
2013-02-08 05:00,32,21
2013-02-08 06:00,35,21
2013-02-08 07:00,41,22
2013-02-08 08:00,41,22
2013-02-08 09:00,40,21
2013-02-08 10:00,33,18
2013-02-08 11:00,26,16
2013-02-08 12:00,26,14
2013-02-08 13:00,24,16
2013-02-08 14:00,23,15
2013-02-08 15:00,19,10
2013-02-08 16:00,25,13
2013-02-08 17:00,31,15
2013-02-08 18:00,31,17
2013-02-08 19:00,33,20
2013-02-08 20:00,34,21
2013-02-08 21:00,26,19
2013-02-08 22:00,21,16
2013-02-08 23:00,17,15
2013-02-09 00:00,4,8
2013-02-09 01:00,4,8
2013-02-09 02:00,7,10
2013-02-09 03:00,7,10
2013-02-09 04:00,7,10
2013-02-09 05:00,19,12
2013-02-09 06:00,16,11
2013-02-09 07:00,32,11
2013-02-09 08:00,24,16
2013-02-09 09:00,19,20
2013-02-09 10:00,20,17
2013-02-09 11:00,15,14
2013-02-09 12:00,12,13
2013-02-09 13:00,26,15
2013-02-09 14:00,24,15
2013-02-09 15:00,25,18
2013-02-09 16:00,23,16
2013-02-09 17:00,23,19
2013-02-09 18:00,24,20
2013-02-09 19:00,23,22
2013-02-09 20:00,24,24
2013-02-09 21:00,25,23
2013-02-09 22:00,21,26
2013-02-09 23:00,17,23
2013-02-10 00:00,15,21
2013-02-10 01:00,11,18
2013-02-10 02:00,10,18
2013-02-10 03:00,7,17
2013-02-10 04:00,4,14
2013-02-10 05:00,3,12
2013-02-10 06:00,3,11
2013-02-10 07:00,4,11
2013-02-10 08:00,7,11
2013-02-10 09:00,6,10
2013-02-10 10:00,8,9
2013-02-10 11:00,8,10
2013-02-10 12:00,11,11
2013-02-10 13:00,10,9
2013-02-10 14:00,9,8
2013-02-10 15:00,8,8
2013-02-10 16:00,9,7
2013-02-10 17:00,12,9
2013-02-10 18:00,11,11
2013-02-10 19:00,10,11
2013-02-10 20:00,7,9
2013-02-10 21:00,5,8
2013-02-10 22:00,4,6
2013-02-10 23:00,3,8
2013-02-11 00:00,3,8
2013-02-11 01:00,2,8
2013-02-11 02:00,2,6
2013-02-11 03:00,1,8
2013-02-11 04:00,3,7
2013-02-11 05:00,12,9
2013-02-11 06:00,36,11
2013-02-11 07:00,41,15
2013-02-11 08:00,38,15
2013-02-11 09:00,41,15
2013-02-11 10:00,48,19
2013-02-11 11:00,51,19
2013-02-11 12:00,43,18
2013-02-11 13:00,38,18
2013-02-11 14:00,39,19
2013-02-11 15:00,40,19
2013-02-11 16:00,43,20
2013-02-11 17:00,44,21
2013-02-11 18:00,47,23
2013-02-11 19:00,49,28
2013-02-11 20:00,45,27
2013-02-11 21:00,44,26
2013-02-11 22:00,42,25
2013-02-11 23:00,38,29
2013-02-12 00:00,33,31
2013-02-12 01:00,32,33
2013-02-12 02:00,28,35
2013-02-12 03:00,24,36
2013-02-12 04:00,19,34